FW3899 Weather Reports


Display with metric or nautical units.
time (UTC)temp
F
wind
direction
speed
MPH
gust
MPH
rain 1hr
in
rain 24hr
in
rain mn
in
humidity
%
barometer
mb
20260901123004 74 315 1.0 9.0 0.00 0.00 0.00 56 1020.1
20260901121504 73 3 2.0 7.0 0.00 0.00 0.00 59 1020.3
20260901120003 74 335 3.0 9.0 0.00 0.00 0.00 59 1020.4
20260901114600 73 330 1.0 9.0 0.00 0.00 0.00 63 1020.5
20260901113121 72 303 3.0 7.0 0.00 0.00 0.00 62 1020.5
20260901111654 72 66 1.0 5.0 0.00 0.00 0.00 59 1020.6
20260901110154 71 304 1.0 3.0 0.00 0.00 0.00 63 1020.7
20260901104548 70 297 1.0 4.0 0.00 0.00 0.00 66 1020.7
20260901103050 70 336 1.0 4.0 0.00 0.00 0.00 63 1020.8
20260901101609 69 267 2.0 4.0 0.00 0.00 0.00 65 1021.0
20260901100104 69 295 2.0 8.0 0.00 0.00 0.00 64 1021.1
20260901094547 71 306 1.0 7.0 0.00 0.00 0.00 62 1021.1
20260901093043 71 342 1.0 6.0 0.00 0.00 0.00 63 1021.1
20260901091540 70 312 1.0 7.0 0.00 0.00 0.00 65 1021.2
20260901090040 70 332 4.0 9.0 0.00 0.00 0.00 66 1021.3
20260901084542 70 311 1.0 5.0 0.00 0.00 0.00 69 1021.1
20260901083035 69 318 2.0 4.0 0.00 0.00 0.00 68 1021.1
20260901081525 69 11 2.0 5.0 0.00 0.00 0.00 67 1021.0
20260901080022 68 299 0.0 3.0 0.00 0.00 0.00 68 1021.0
20260901074518 68 297 1.0 4.0 0.00 0.00 0.00 66 1020.9
20260901073012 67 313 0.0 3.0 0.00 0.00 0.00 69 1020.9
20260901071509 66 307 1.0 3.0 0.00 0.00 0.00 69 1020.8
20260901070004 65 238 1.0 2.0 0.00 0.00 0.00 71 1020.8
20260901064603 64 237 0.0 3.0 0.00 0.00 0.00 75 1020.8
20260901063055 63 213 0.0 0.0 0.00 0.00 0.00 77 1020.8
20260901061551 62 213 0.0 0.0 0.00 0.00 0.00 77 1020.8
20260901060047 61 213 0.0 2.0 0.00 0.00 0.00 77 1020.7
20260901054541 59 192 0.0 0.0 0.00 0.00 0.00 80 1020.6
20260901053101 57 192 0.0 0.0 0.00 0.00 0.00 82 1020.6
20260901051533 56 192 0.0 0.0 0.00 0.00 0.00 83 1020.5
20260901050030 56 192 0.0 3.0 0.00 0.00 0.00 83 1020.5
20260901044531 56 88 1.0 4.0 0.00 0.00 0.00 83 1020.5
20260901043036 55 225 1.0 3.0 0.00 0.00 0.00 83 1020.4
20260901041528 55 236 0.0 3.0 0.00 0.00 0.00 83 1020.5
20260901040026 56 291 2.0 3.0 0.00 0.00 0.00 82 1020.5
20260901034523 55 227 1.0 4.0 0.00 0.00 0.00 83 1020.4
20260901033036 55 208 3.0 4.0 0.00 0.00 0.00 83 1020.3
20260901031523 55 200 2.0 4.0 0.00 0.00 0.00 83 1020.4
20260901030023 55 207 0.0 3.0 0.00 0.00 0.00 83 1020.3
20260901024522 55 206 2.0 3.0 0.00 0.00 0.00 83 1020.5
20260901023020 55 206 2.0 3.0 0.00 0.00 0.00 83 1020.5
20260901021523 55 206 1.0 3.0 0.00 0.00 0.00 82 1020.6
20260901020040 56 206 0.0 0.0 0.00 0.00 0.00 81 1020.4
20260901014515 57 206 0.0 2.0 0.00 0.00 0.00 80 1020.4
20260901013014 57 206 2.0 4.0 0.00 0.00 0.00 80 1020.3
20260901011514 57 207 3.0 5.0 0.00 0.00 0.00 80 1020.5
20260901010014 57 207 2.0 4.0 0.00 0.02 0.00 80 1020.4
20260901004512 57 205 3.0 5.0 0.00 0.02 0.00 80 1020.5
20260901003012 56 220 5.0 6.0 0.00 0.02 0.00 82 1020.5
20260901001511 56 219 3.0 5.0 0.00 0.02 0.00 82 1020.5
20260901000009 56 220 1.0 3.0 0.00 0.19 0.00 82 1020.4
20260831234507 56 219 2.0 3.0 0.00 0.19 0.00 81 1020.5
20260831233008 57 220 0.0 3.0 0.00 0.19 0.00 80 1020.5
20260831231502 58 224 1.0 3.0 0.00 0.19 0.00 77 1020.5
20260831230058 60 224 0.0 2.0 0.00 0.19 0.00 73 1020.3
20260831224556 61 224 1.0 6.0 0.00 0.19 0.00 72 1020.4
20260831223053 61 221 4.0 6.0 0.00 0.19 0.00 71 1020.3
20260831221551 62 225 5.0 8.0 0.00 0.19 0.00 69 1020.3
20260831220108 61 234 5.0 8.0 0.00 0.19 0.00 70 1020.3
20260831214549 62 224 5.0 7.0 0.00 0.19 0.19 70 1020.3
20260831213047 62 226 5.0 6.0 0.00 0.19 0.19 68 1020.3
20260831211602 62 222 5.0 7.0 0.00 0.19 0.19 69 1020.3
20260831210050 63 232 5.0 11.0 0.00 0.19 0.19 68 1020.1
20260831204544 63 226 6.0 10.0 0.00 0.19 0.19 67 1020.1
20260831203042 64 234 5.0 8.0 0.00 0.19 0.19 66 1019.9
20260831201641 63 253 5.0 8.0 0.00 0.19 0.19 67 1019.8
20260831200043 64 222 3.0 6.0 0.00 0.19 0.19 67 1019.6
20260831194613 64 233 4.0 9.0 0.00 0.19 0.19 66 1019.4
20260831193040 64 203 3.0 6.0 0.00 0.19 0.19 68 1019.3
20260831191538 64 208 3.0 8.0 0.00 0.19 0.19 68 1019.1
20260831190033 65 167 3.0 5.0 0.00 0.19 0.19 65 1019.0
20260831184537 65 227 3.0 11.0 0.00 0.19 0.19 65 1018.6
20260831183029 66 208 3.0 6.0 0.00 0.19 0.19 63 1018.3
20260831181526 67 228 4.0 9.0 0.00 0.19 0.19 62 1018.0
20260831180031 68 284 8.0 15.0 0.00 0.19 0.19 61 1017.8
20260831174521 69 274 9.0 14.0 0.00 0.19 0.19 60 1017.6
20260831173021 70 286 11.0 18.0 0.00 0.19 0.19 59 1017.5
20260831171519 71 282 10.0 17.0 0.00 0.19 0.19 58 1017.2
20260831170019 72 276 11.0 18.0 0.00 0.19 0.19 57 1017.2
20260831164516 73 286 11.0 18.0 0.00 0.19 0.19 56 1016.9
20260831163015 74 280 8.0 14.0 0.00 0.19 0.19 54 1016.7
20260831161515 75 282 9.0 17.0 0.00 0.19 0.19 52 1016.7
20260831160025 75 278 12.0 23.0 0.00 0.19 0.19 47 1016.5
20260831154517 76 243 9.0 18.0 0.00 0.19 0.19 48 1016.6
20260831153012 76 265 13.0 19.0 0.00 0.19 0.19 44 1016.6
20260831151513 76 283 9.0 18.0 0.00 0.19 0.19 42 1016.4
20260831150014 76 236 13.0 24.0 0.00 0.19 0.19 39 1016.5
20260831144522 76 293 14.0 21.0 0.00 0.19 0.19 41 1016.3
20260831143011 77 274 14.0 21.0 0.00 0.19 0.19 40 1016.3
20260831141510 77 261 12.0 20.0 0.00 0.19 0.19 40 1016.2
20260831140009 76 279 12.0 25.0 0.00 0.19 0.19 40 1016.2
20260831134507 77 284 16.0 23.0 0.00 0.19 0.19 41 1016.2
20260831133005 76 244 12.0 32.0 0.00 0.19 0.19 43 1016.3
20260831131503 76 290 14.0 21.0 0.00 0.19 0.19 45 1016.3
20260831130001 75 257 15.0 27.0 0.00 0.19 0.19 45 1016.5
20260831124559 75 287 17.0 28.0 0.00 0.19 0.19 45 1016.5